Location: Shenandoah County Park
(38.9356°N, 78.4524°W)
Time: 04:55:19
(UTC-04:00)

Transit 2A - Pass Details

Date: 16 June 2024
Orbit: 591 x 960 km, 66.7° (Epoch: 23 July)

Event Time Altitude Azimuth Distance (km) Brightness Sun altitude
Rises 03:26:22 0° 325° (NW) 3,552 9.8 -20.5°
Reaches altitude 10° 03:28:55 10° 321° (NW) 2,641 9.0 -20.2°
Maximum altitude 03:34:54 50° 248° (WSW) 1,201 6.6 -19.6°
Enters shadow 03:37:46 30° 190° (S) 1,657 7.2 -19.3°
